Location: Baia Mare
(47.6567°N, 23.5850°E)
Time: 06:58:40
(UTC+03:00)

ISS - Pass Details

Date: 14 March 2020
Orbit: 417 x 423 km, 51.6° (Epoch: 29 March)

Event Time Altitude Azimuth Distance (km) Brightness Sun altitude
Exits shadow 05:36:15 12° 219° (SW) 1,408 -1.5 -11.6°
Drops below altitude 10° 05:37:08 10° 204° (SSW) 1,502 -1.3 -11.4°
Sets 05:40:20 0° 171° (S) 2,362 0.1 -10.9°
